sat.trackr.live / text

‹ back to catalog

STARLINK-35296

NORAD 65801 · 2025-218L

PAYLOAD ACTIVE UNKNOWN

§ Identity

Operator
Country
US
Launch date
2025-09-26
Launch site
AFWTR
Launch vehicle
Mass (kg)
RCS (m²)

Purposes: comms

External: N2YO · Heavens-Above · Gunter

§ Orbital elements

Epoch: 2026-05-25T02:51:16.555104Z

Period
95.64 min
Inclination
97.4506°
Eccentricity
0.0001703
Mean motion
15.05660292 rev/d
Perigee alt
548.3 km
Apogee alt
550.7 km
Semi-major
6,927.6 km
B*
4.9513e-4
RAAN
7.9637°
Arg perigee
94.4743°
Mean anomaly
265.6679°
Rev number
3,647

§ Raw data

STARLINK-352961 65801U 25218L   26145.11894161  .00007095  00000+0  49513-3 0  99922 65801  97.4506   7.9637 0001703  94.4743 265.6679 15.05660292 36474

JSON: /api/v1/satellites/65801 · /tle

For live sub-satellite position, see the globe view (requires WebGL).

§ Visibility from observer

Set your observer location to see the next 7 days of passes ≥ 10°. The values pass through the URL so the page stays shareable.

No JS? Fill the form by hand. The geolocation button needs JavaScript.